Simultaneous Nadir Overpasses (SNOs) Predictions

Prediction of SNOs between AQUA and LANDSAT-8 Satellite Orbit:

Table of predicted SNOs for the next 14.0 days since TLE Epoch: 1/31/2025
Index Date (AQUA) Time (AQUA) Lat,Lon (AQUA) SZA (AQUA ) Date (LANDSAT-8) Time (LANDSAT-8) Lat,Lon (LANDSAT-8) SZA (LANDSAT-8 ) Distance(km) Time Diff (sec)
1 02/13/2025 20:58:41 74.28,-128.29 87.26 02/13/2025 20:57:35 74.27,-130.74 87.23 73.96 66
2 02/13/2025 21:48:07 -74.66, 38.44 92.38 02/13/2025 21:46:55 -74.67, 37.86 92.38 16.87 72
3 02/13/2025 22:37:29 74.79,-154.22 87.73 02/13/2025 22:36:18 74.78,-154.21 87.72 0.98 71
4 02/13/2025 23:26:47 -74.76, 13.52 92.31 02/13/2025 23:25:46 -74.77, 13.40 92.30 3.54 61
5 02/14/2025 00:16:07 74.79,-178.88 87.71 02/14/2025 00:15:11 74.78,-178.93 87.70 1.83 56
6 02/14/2025 01:05:26 -74.82, -11.28 92.28 02/14/2025 01:04:38 -74.82, -11.19 92.27 2.40 48
7 02/14/2025 01:54:45 74.79, 156.46 87.69 02/14/2025 01:54:04 74.78, 156.35 87.68 3.44 41
8 02/14/2025 02:44:04 -74.82, -35.94 92.30 02/14/2025 02:43:31 -74.82, -35.92 92.30 0.70 33
9 02/14/2025 03:33:24 74.84, 131.66 87.72 02/14/2025 03:32:56 74.83, 131.76 87.71 3.06 28



Historial Predications of SNOs between AQUA and LANDSAT-8
